CALSPHERE 1

Last updated on Wed Sep 09 2026 00:03:47 GMT+0000 (Coordinated Universal Time)

1 00900U 64063C 26251.45597946 .00000474 00000+0 47216-3 0 9990 2 00900 90.2173 73.6999 0027316 43.6612 348.1011 13.76698736 82887
UTC large
Height (km)
Speed (km/s)
/
Latitude / Longitude
Inclination (degrees)
Orbital Period (minutes)
Azimuth
Elevation
Range (km)
Doppler Factor

Next 0 passes for location: London (51.5072 / 0.1276)

No passes found over London.
CALSPHERE 1